Tracking 35331 objects as of 16-Sep-2026
HD Live streaming from Space Station
objects crossing your sky now

THOR ABLESTAR DEB


10-day predictions


NORAD ID: 124
Int'l Code: 1961-015J
Launch date: June 29, 1961
Source: United States (US)
Launch site: AIR FORCE EASTERN TEST RANGE (AFETR)

Note: This is SATELLITE DEBRIS
Your satellite tracking list
Your tracking list is empty




NASA's NSSDC Master Catalog

Two Line Element Set (TLE):
1   124U 61015J   26258.25464544  .00000479  00000-0  19015-3 0  9996
2   124  66.5465   4.1623 0061763  67.1089 293.6515 14.36130770371869
Source of the keplerian elements: AFSPC